Regional Weather Roundup
Issued by NWS

Home | Current Version | Previous Version | Text Only | Print | Product List | Glossary On
Versions: 1 2 3 4 5 6 7 8 9 10 11 12 13 14 15 16 17 18 19 20 21 22 23 24 25 26 27 28 29 30 31 32 33 34 35 36 37 38 39 40 41 42 43 44 45 46 47 48 49 50
000
ASUS46 KLOX 181612
RWRCA

SOUTHERN CALIFORNIA WEATHER ROUNDUP
NATIONAL WEATHER SERVICE OXNARD CALIFORNIA
900 AM PDT SAT APR 18 2015

NOTE: "FAIR" INDICATES FEW OR NO CLOUDS BELOW 12,000 FEET WITH NO
SIGNIFICANT WEATHER AND/OR OBSTRUCTIONS TO VISIBILITY.

  -  STATIONS PRECEEDED BY AN ASTERISK (*) ARE NOT NWS OR FAA
     STATIONS AND ARE NOT SUBJECT TO NWS AND FAA QUALITY CONTROL.

CAZ041-042-087-181700-
LA AND ORANGE COUNTY COASTAL AREAS


CITY           SKY/WX    TMP DP  RH WIND       PRES   REMARKS
L.A. DOWNTOWN  SUNNY     67  40  37 VRB3      30.01F
L.A. AIRPORT   MOSUNNY   64  45  49 SE5       30.02F
LONG BEACH     SUNNY     66  50  56 CALM      30.02F

CITY           SKY/WX    TMP DP  RH WIND       PRES   REMARKS
AVALON           N/A     68 N/A N/A MISG        N/A
FULLERTON      SUNNY     66  40  38 CALM      30.01F
*GETTY CENTER    N/A    N/A N/A N/A NE3         N/A
HAWTHORNE      SUNNY     65  45  48 E3        30.02F
*LOS ALAMITOS  SUNNY     64  51  62 VRB1      30.02S
*REDONDO BEACH   N/A     66  50  55 NE1       30.02S
SANTA ANA      SUNNY     66  42  41 CALM      30.02S
STA MONICA APT SUNNY     68  39  34 E5        30.02S
TORRANCE       SUNNY     68  50  52 VRB5      30.03S
*UCLA            N/A     68  32  26 E2        29.99F

$$

CAZ547-548-048-181700-
LA COUNTY VALLEYS AND INLAND EMPIRE


CITY           SKY/WX    TMP DP  RH WIND       PRES   REMARKS
BURBANK        SUNNY     65  32  29 CALM      30.02S
VAN NUYS       SUNNY     67  31  26 CALM      30.02S

CITY           SKY/WX    TMP DP  RH WIND       PRES   REMARKS
CORONA AIRPORT SUNNY     62  33  33 CALM      30.03F
CHINO          SUNNY     63  33  32 CALM      30.04S
MARCH AFB      SUNNY     64  24  21 SE3       30.03F
ONTARIO        SUNNY     65  30  27 CALM      30.03S
*PASADENA        N/A     66  34  30 E3          N/A
POMONA         SUNNY     64  28  25 CALM      30.05S
RIVERSIDE      SUNNY     66  27  23 CALM      30.03S
SAN BERNARDINO SUNNY     64  23  20 CALM      30.03S
*WHITEMAN AP   SUNNY     66  27  22 CALM      30.05S
*WOODLAND HILL   N/A     66  32  28 N2          N/A

$$

CAZ054-055-181700-
LA AND SAN BERNARDINO COUNTY MOUNTAINS


CITY           SKY/WX    TMP DP  RH WIND       PRES   REMARKS
*BIG BEAR AIRP SUNNY     52  18  25 CALM      30.20F
*CHILAO          N/A     63  20  19 S3          N/A
MT WILSON NWS    N/A     59  19  21 W3          N/A
SANDBERG       SUNNY     63  26  24 N14       30.12S
*WARM SPRINGS    N/A     64  28  26 CALM        N/A

$$

CAZ028-029-059-060-099-181700-
ANTELOPE VALLEY AND SURROUNDING AREAS


CITY           SKY/WX    TMP DP  RH WIND       PRES   REMARKS
LANCASTER      SUNNY     70  25  18 W3        30.05F
PALMDALE       SUNNY     67  25  20 CALM      30.06F

CITY           SKY/WX    TMP DP  RH WIND       PRES   REMARKS
29 PALMS       SUNNY     71  20  14 CALM      30.07F
BARSTOW/DAGGET SUNNY     68  20  16 W16       30.02F
BISHOP         SUNNY     60   6  11 CALM      30.12F
CHINA LAKE     SUNNY     62  20  19 CALM      30.03S
EDWARDS AFB    SUNNY     58  21  23 CALM      30.04S
MOJAVE         FAIR      66  25  20 CALM      30.06S
NEEDLES        SUNNY     69  19  15 N3        29.96S
VICTORVILLE    SUNNY     66  19  16 SW6       30.07F

$$

CAZ039-040-181700-
VENTURA AND SANTA BARBARA COUNTY COAST


CITY           SKY/WX    TMP DP  RH WIND       PRES   REMARKS
CAMARILLO      SUNNY     64  33  31 CALM      30.00S
NWS OXNARD       N/A     67  33  28 CALM      30.00S
OXNARD AIRPORT SUNNY     65  30  27 CALM      30.00F
*POINT MUGU    SUNNY     68  45  43 S7        30.02S
SBA APT/GOLETA SUNNY     64  50  60 S6        30.00R
*SANTA BARBARA   N/A     64  50  61 NW2       30.08S
*VENTURA         N/A     63  35  35 CALM      30.05S

$$

CAZ044-045-181700-
VENTURA COUNTY VALLEYS


CITY           SKY/WX    TMP DP  RH WIND       PRES   REMARKS
*SIMI VALLEY     N/A     71  37  28 SE2       29.96F
*OJAI            N/A     67  40  37 CALM      29.96F
*FILLMORE        N/A     66  39  37 CALM      29.90F

$$

CAZ053-181700-
VENTURA COUNTY MOUNTAINS


CITY           SKY/WX    TMP DP  RH WIND       PRES   REMARKS
*LOCKWOOD VLY    N/A     57  23  26 MISG        N/A
*ROSE VALLEY     N/A     61  36  39 MISG        N/A

$$

CAZ034-035-036-181700-
CENTRAL COAST AND SANTA YNEZ VALLEY


CITY           SKY/WX    TMP DP  RH WIND       PRES   REMARKS
SAN LUIS OBISP CLOUDY    49  49 100 NW6       30.04F FOG
SANTA MARIA    MOSUNNY   54  47  77 VRB3      30.05S HAZE

CITY           SKY/WX    TMP DP  RH WIND       PRES   REMARKS
*CAL POLY SLO    N/A     48  48 100 CALM        N/A
*LOMPOC        CLOUDY    50  46  87 CALM      30.05F
*PISMO BEACH     N/A     51  48  87 S2        30.05S
*SANTA YNEZ    FAIR      54  32  43 CALM      30.03S

$$

CAZ037-038-051-181700-
SAN LUIS OBISPO COUNTY INTERIOR AND CUYAMA VALLEY


CITY           SKY/WX    TMP DP  RH WIND       PRES   REMARKS
*CUYAMA          N/A     62  32  32 CALM      30.00F
PASO ROBLES    SUNNY     56  32  40 CALM      30.06S

$$

CAZ032-033-061-181700-
SOUTHERN DESERTS


CITY           SKY/WX    TMP DP  RH WIND       PRES   REMARKS
BLYTHE         SUNNY     71  24  17 CALM      29.95S
IMPERIAL       SUNNY     74  34  23 CALM      29.93S
PALM SPRINGS   SUNNY     77  24  14 CALM      29.95F
THERMAL        SUNNY     75  33  21 E3        29.91F

$$

ELSEWHERE ACROSS THE WESTERN UNITED STATES AND MEXICO


CITY           SKY/WX    TMP DP  RH WIND       PRES   REMARKS
DENVER, CO     CLOUDY    42  36  79 VRB3      29.94F
GRAND CANYON,  SUNNY     53  24  32 NW13      30.12F
HONOLULU, HI   PTCLDY    73  63  68 NE13      30.09R
KAHULUI, MAUI  PTCLDY    72  63  73 NE10      30.09R
LAKE TAHOE, CA SUNNY     48  23  37 E3        30.21F
LAS VEGAS, NV  SUNNY     70  16  12 S5        29.96S
MAMMOTH LAKES, FAIR      48  10  21 SE3       30.23F
MEXICO CITY, M SUNNY     70  45  40 N5        30.30R
PHOENIX, AZ    SUNNY     69  25  19 E6        29.97F
PORTLAND, OR   MOSUNNY   52  46  80 CALM      30.32S
RENO, NV       MOSUNNY   52  17  25 CALM      30.19R
SALT LAKE CITY SUNNY     54  36  50 E3        30.04S
SAN DIEGO, CA  SUNNY     65  45  48 CALM      30.04S
SAN FRANCISCO, MOSUNNY   54  52  94 CALM      30.05F
SAN JOSE, CA   MOSUNNY   56  48  74 CALM      30.04F
SEATTLE, WA    SUNNY     52  40  63 N10       30.36F
TIJUANA, MEX   SUNNY     64  25  22 CALM      30.05S

$$

STATION/POSITION TIME  TEMP    WIND        PRES    VSBY  WAVE
                       AIR SEA DIR/SP/G                  HT/PER
                 (UTC) (F)     (DEG/KT/KT) (MB)    (MI)  (FT/S)
POINT ARGUELLO B NOT AVBL
WEST SANTA BARBA 1600   52 55  310/ 17/ 21 1015.8R         8/15
POINT CONCEPTION NOT AVBL
EAST SANTA BARBA NOT AVBL
SANTA MONICA BAY 1600   62 63  170/  2/  4 1016.1R         3/16



USA.gov is the U.S. government's official web portal to all federal, state and local government web resources and services.